Location: St. Louis
(38.6270°N, 90.1994°W)
Time: 04:11:38
(UTC-06:00)

Explorer 7 - Pass Details

Date: 14 December 2021
Orbit: 483 x 674 km, 50.3° (Epoch: 19 January)

Event Time Altitude Azimuth Distance (km) Brightness Sun altitude
Exits shadow 06:20:36 - 321° (NW) 1,916 9.0 -9.7°
Reaches altitude 10° 06:20:43 10° 322° (NW) 1,874 9.0 -9.7°
Maximum altitude 06:24:19 26° 20° (NNE) 1,108 8.3 -9.0°
Drops below altitude 10° 06:27:43 10° 78° (ENE) 1,772 10.3 -8.4°
Sets 06:30:09 0° 91° (E) 2,627 11.8 -8.0°
